East Milton, MA

2:16 AM EDT on June 24, 2018 (GMT -0400)
East Milton

Weather History for KMQE - April, 2013

Change the Weather History Date:

Thursday, April 4, 2013

  Actual Average (KOWD) Record (KOWD)
Temperature  
Mean Temperature 41 °F -  
Max Temperature 55 °F 50 °F 66 °F (2012)
Min Temperature 27 °F 32 °F 21 °F (2016)
Degree Days  
Heating Degree Days 24    
Moisture  
Dew Point 15 °F    
Average Humidity 40    
Maximum Humidity 67    
Minimum Humidity 16    
Precipitation  
Precipitation 0.00 in - - ()
Sea Level Pressure  
Sea Level Pressure 30.19 in    
Wind  
Wind Speed 13 mph (WSW)    
Max Wind Speed 21 mph    
Max Gust Speed 29 mph    
Averages and records for this station are not official NWS values.
T = Trace of Precipitation, MM = Missing Value Source: NWS Daily Summary

Daily Weather History Graph

Daily Weather History Graph

Search for Another Location

Airport or City:

Astronomy

Apr. 04, 2013 Rise Set
Actual Time 6:21 AM EDT 7:13 PM EDT
Civil Twilight 5:53 AM EDT 7:42 PM EDT
Nautical Twilight 5:19 AM EDT 8:16 PM EDT
Astronomical Twilight 4:44 AM EDT 8:51 PM EDT
Moon 2:52 AM EDT (4/4) 1:22 PM EDT (4/4)
Length of Visible Light 13h 49m
Length of Day
12h 52m
Waning Crescent, 34% of the Moon is Illuminated
Apr 4
Waning Crescent
Apr 10
New
Apr 18
First Quarter
Apr 25
Full
May 2
Last Quarter

Hourly Weather History & Observations

Time (EDT) Temp. Windchill Dew Point Humidity Pressure Visibility Wind Dir Wind Speed Gust Speed Precip Events Conditions
1:54 AM 28.9 °F 17.3 °F 12.9 °F 51% 30.20 in - West 16.1 mph 20.7 mph N/A   Unknown
2:54 AM 28.0 °F 17.5 °F 12.9 °F 53% 30.21 in - WNW 12.7 mph - N/A   Unknown
3:54 AM 28.0 °F 18.6 °F 12.9 °F 53% 30.20 in - WNW 10.4 mph 18.4 mph N/A   Unknown
4:00 AM - - - N/A% - - North - - N/A   Unknown
4:54 AM 28.0 °F 18.1 °F 12.9 °F 53% 30.22 in - WNW 11.5 mph - N/A   Unknown
5:54 AM 27.0 °F 17.3 °F 14.0 °F 58% 30.25 in - WNW 10.4 mph 19.6 mph N/A   Unknown
6:54 AM 28.0 °F 17.5 °F 15.1 °F 58% 30.28 in - WNW 12.7 mph - N/A   Unknown
7:54 AM 30.9 °F 21.7 °F 15.1 °F 52% 30.31 in - West 11.5 mph - N/A   Unknown
8:54 AM 35.1 °F 25.9 °F 15.1 °F 44% 30.30 in - WNW 13.8 mph 19.6 mph N/A   Unknown
9:54 AM 37.9 °F 32.1 °F 12.0 °F 35% 30.30 in - WNW 8.1 mph 17.3 mph N/A   Unknown
10:54 AM 43.0 °F 37.7 °F 10.0 °F 26% 30.28 in - WNW 9.2 mph 16.1 mph N/A   Unknown
11:54 AM 45.0 °F 40.1 °F 10.0 °F 24% 30.26 in - WSW 9.2 mph 16.1 mph N/A   Unknown
12:00 PM - - - N/A% - - North - - N/A   Unknown
12:54 PM 48.9 °F - 10.0 °F 21% 30.23 in - SW 10.4 mph 16.1 mph N/A   Unknown
1:54 PM 51.1 °F - 9.0 °F 18% 30.21 in - WSW 11.5 mph 19.6 mph N/A   Unknown
2:54 PM 53.1 °F - 8.1 °F 16% 30.18 in - WSW 13.8 mph 24.2 mph N/A   Unknown
3:54 PM 55.0 °F - 9.0 °F 16% 30.14 in - WSW 16.1 mph 24.2 mph N/A   Unknown
4:54 PM 53.1 °F - 10.0 °F 18% 30.11 in - WSW 8.1 mph 25.3 mph N/A   Unknown
5:54 PM 52.0 °F - 19.0 °F 27% 30.11 in - South 16.1 mph 23.0 mph N/A   Unknown
6:54 PM 46.9 °F - 19.0 °F 33% 30.10 in - South 18.4 mph 25.3 mph N/A   Unknown
7:54 PM 43.0 °F 34.8 °F 21.0 °F 42% 30.12 in - SSW 18.4 mph 28.8 mph N/A   Unknown
8:54 PM 39.9 °F 30.5 °F 24.1 °F 53% 30.13 in - SSW 19.6 mph 25.3 mph N/A   Unknown
9:54 PM 39.0 °F 29.9 °F 21.9 °F 50% 30.12 in - SSW 17.3 mph 25.3 mph N/A   Unknown
10:54 PM 37.9 °F 30.0 °F 23.0 °F 55% 30.09 in - SSW 12.7 mph 21.9 mph N/A   Unknown
11:54 PM 36.0 °F 25.0 °F 26.1 °F 67% 30.07 in - SSW 20.7 mph 25.3 mph N/A   Unknown